Location: ????????
(60.5616°N, 46.8254°E)
Time: 03:58:25
(UTC+00:00)

Cosmos 1782 - Pass Details

Date: 18 February 2020
Orbit: 535 x 554 km, 82.5° (Epoch: 30 March)

Event Time Altitude Azimuth Distance (km) Brightness Sun altitude
Rises 15:21:35 0° 343° (NNW) 2,748 6.6 -12.0°
Reaches altitude 10° 15:23:49 10° 337° (NNW) 1,847 5.8 -12.2°
Maximum altitude 15:27:41 44° 265° (W) 770 4.1 -12.7°
Drops below altitude 10° 15:31:31 10° 193° (SSW) 1,823 5.6 -13.2°
Sets 15:33:43 0° 187° (S) 2,709 6.4 -13.5°
